Weather History for KMRH - July, 2013

Change the Weather History Date:

Wednesday, July 31, 2013

  Actual Average Record
Temperature  
Mean Temperature 78 °F -  
Max Temperature 84 °F 86 °F 93 °F (1986)
Min Temperature 73 °F 72 °F 64 °F (2001)
Cooling Degree Days 12    
Growing Degree Days 28 (Base 50)    
Moisture  
Dew Point 71 °F    
Average Humidity 80    
Maximum Humidity 100    
Minimum Humidity 62    
Precipitation  
Precipitation 0.00 in - - ()
Sea Level Pressure  
Sea Level Pressure 30.11 in    
Wind  
Wind Speed 4 mph (East)    
Max Wind Speed 9 mph    
Max Gust Speed -    
Visibility 9 miles    
Events      
Averages and records for this station are not official NWS values.
T = Trace of Precipitation, MM = Missing Value Source: NWS Daily Summary

Daily Weather History Graph

Daily Weather History Graph

Search for Another Location

Airport or City:

Trip Planner

Search our weather history database for the weather conditions in past years. The results will help you decide how hot, cold, wet, or windy it might be!

Date:

Astronomy

Jul. 31, 2013 Rise Set
Actual Time 6:16 AM EDT 8:09 PM EDT
Civil Twilight 5:48 AM EDT 8:37 PM EDT
Nautical Twilight 5:14 AM EDT 9:10 PM EDT
Astronomical Twilight 4:38 AM EDT 9:46 PM EDT
Moon 1:09 AM EDT (7/31) 3:23 PM EDT (7/31)
Length of Visible Light 14h 48m
Length of Day
13h 53m
Waning Crescent, 32% of the Moon is Illuminated
Jul 31
Waning Crescent
Aug 6
New
Aug 14
First Quarter
Aug 20
Full
Aug 28
Last Quarter

Hourly Weather History & Observations

Time (EDT) Temp. Heat Index Dew Point Humidity Pressure Visibility Wind Dir Wind Speed Gust Speed Precip Events Conditions
12:58 AM 73.9 °F - 73.9 °F 100% 30.14 in 7.0 mi Calm Calm - N/A   Clear
1:58 AM 73.0 °F - 73.0 °F 100% 30.14 in 6.0 mi NE 3.5 mph - N/A   Scattered Clouds
2:58 AM 73.0 °F - 72.0 °F 96% 30.13 in 6.0 mi NE 4.6 mph - N/A   Mostly Cloudy
3:58 AM 73.0 °F - 73.0 °F 100% 30.12 in 6.0 mi NNE 4.6 mph - N/A   Partly Cloudy
4:58 AM 73.0 °F - 73.0 °F 100% 30.12 in 6.0 mi NNE 5.8 mph - N/A   Clear
5:58 AM 73.9 °F - 73.0 °F 97% 30.13 in 7.0 mi NE 4.6 mph - N/A   Clear
6:58 AM 73.9 °F - 73.0 °F 97% 30.12 in 6.0 mi Calm Calm - N/A   Clear
7:58 AM 77.0 °F - 73.9 °F 90% 30.13 in 9.0 mi NE 4.6 mph - N/A   Clear
8:58 AM 79.0 °F - 73.0 °F 82% 30.14 in 10.0 mi ENE 4.6 mph - N/A   Clear
9:58 AM 80.1 °F 83.8 °F 72.0 °F 76% 30.14 in 10.0 mi East 5.8 mph - N/A   Clear
10:58 AM 80.1 °F 82.9 °F 69.1 °F 69% 30.15 in 10.0 mi East 5.8 mph - N/A   Clear
11:58 AM 81.0 °F 83.3 °F 66.9 °F 62% 30.14 in 10.0 mi ESE 6.9 mph - N/A   Clear
12:58 PM 82.0 °F 86.7 °F 72.0 °F 71% 30.13 in 10.0 mi East 8.1 mph - N/A   Scattered Clouds
1:58 PM 81.0 °F 84.1 °F 69.1 °F 67% 30.13 in 10.0 mi East 4.6 mph - N/A   Clear
2:58 PM 82.9 °F 86.5 °F 69.1 °F 63% 30.11 in 10.0 mi ESE 8.1 mph - N/A   Partly Cloudy
3:58 PM 82.0 °F 84.9 °F 68.0 °F 62% 30.09 in 10.0 mi East 9.2 mph - N/A   Clear
4:58 PM 81.0 °F 84.4 °F 70.0 °F 69% 30.08 in 10.0 mi ESE 8.1 mph - N/A   Clear
5:58 PM 81.0 °F 84.1 °F 69.1 °F 67% 30.06 in 10.0 mi SE 6.9 mph - N/A   Partly Cloudy
6:58 PM 80.1 °F 82.7 °F 68.0 °F 67% 30.05 in 10.0 mi ESE 6.9 mph - N/A   Clear
7:58 PM 79.0 °F - 69.1 °F 72% 30.06 in 10.0 mi SSE 6.9 mph - N/A   Clear
8:58 PM 79.0 °F - 70.0 °F 74% 30.08 in 10.0 mi SSE 6.9 mph - N/A   Partly Cloudy
9:58 PM 79.0 °F - 70.0 °F 74% 30.07 in 10.0 mi SSE 4.6 mph - N/A   Clear
10:58 PM 79.0 °F - 71.1 °F 77% 30.06 in 10.0 mi SSE 5.8 mph - N/A   Clear
11:58 PM 79.0 °F - 71.1 °F 77% 30.05 in 10.0 mi SE 5.8 mph - N/A   Clear